Location: Newark
(48.5156°N, 1.8989°W)
Time: 01:01:40
(UTC+00:00)

Envisat - Visible Passes

Search period start: 21 September 2019 00:00
Search period end: 01 October 2019 00:00
Orbit: 764 x 766 km, 98.1° (Epoch: 20 September)

Date Brightness Start Highest point End Pass type
(mag) Time Alt. Az. Time Alt. Az. Time Alt. Az.
21 Sep 4.5 18:48:43 10° SSW 18:53:29 41° W 18:58:18 10° NNW visible
22 Sep 6.2 19:54:25 10° WSW 19:56:25 12° W 19:58:27 10° WNW visible
23 Sep 5.4 19:15:02 10° SSW 19:19:12 25° W 19:23:24 10° NW visible
24 Sep 4.1 18:37:15 10° S 18:42:11 51° W 18:47:09 10° NNW visible
25 Sep 6.0 19:42:04 10° WSW 19:45:01 15° W 19:47:58 10° NW visible
26 Sep 5.0 19:03:22 10° SSW 19:07:51 31° W 19:12:21 10° NNW visible
27 Sep 3.6 18:25:51 10° S 18:30:53 63° WSW 18:35:58 10° NNW visible
28 Sep 5.8 19:30:03 10° SW 19:33:37 19° W 19:37:12 10° NW visible
29 Sep 4.6 18:51:48 10° SSW 18:56:31 38° W 19:01:15 10° NNW visible
30 Sep 3.3 18:14:31 10° S 18:19:36 78° WSW 18:24:43 10° NNW visible
30 Sep 6.3 19:58:03 10° WSW 19:59:29 11° W 20:00:56 10° WNW visible
